#timestamp,LO_Frequency,Hit,StdDev 
1693360815.4,286047002.8,N
1693360835.3,286047000.2,N
1693360855.1,286047002.4,N
1693360875.8,286047000.3,N
1693360895.7,286047002.8,N
1693360915.5,286047001.9,N
1693360935.4,286047002.8,N
1693360955.2,286047002.0,N
1693360975.0,286047006.3,Y
1693360975.9,286047006.3,P
1693360995.8,286046999.8,N
1693361015.6,286046998.1,N
1693361035.4,286046999.1,N
1693361055.3,286046998.6,N
1693361075.1,286046998.3,N
1693361076.0,286046998.3,N
1693361095.8,286046999.1,N
1693361115.7,286046998.1,N
1693361135.5,286046998.4,N
1693361155.3,286047000.8,N
1693361175.2,286047001.1,N
1693361195.9,286047000.7,N
1693361215.7,286046998.6,N
1693361235.6,286047000.5,N
1693361255.4,286047000.2,N
1693361275.2,286047000.5,N
1693361295.1,286046999.9,N
1693361296.0,286046999.9,N
1693361315.8,286046999.7,N
1693361335.6,286047002.7,N
1693361355.5,286047001.5,N
1693361375.3,286046999.7,N
1693361395.1,286047000.7,N
1693361415.9,286047000.3,N
1693361435.7,286046998.3,N
1693361455.5,286047000.9,N
1693361475.4,286047000.4,N
1693361495.2,286047002.5,N
1693361515.0,286047004.4,N
1693361516.0,286047004.4,N
1693361535.8,286047002.0,N
1693361555.6,286047001.5,N
1693361575.5,286047004.0,N
1693361595.3,286047004.0,N
1693361615.1,286047001.6,N
1693361635.9,286047003.9,N
1693361655.7,286047003.7,N
1693361675.5,286047004.3,N
1693361695.4,286047001.5,N
1693361715.2,286047001.5,N
1693361735.0,286047001.4,N
1693361735.9,286047001.4,N
1693361755.8,286047003.2,N
1693361775.6,286047001.3,N
1693361795.4,286047001.8,N
1693361815.3,286047002.8,N
1693361835.1,286047002.7,N
1693361836.0,286047002.7,N
1693361855.8,286047001.5,N
1693361875.7,286047004.0,N
1693361895.5,286047001.4,N
1693361915.3,286047003.0,N
1693361935.2,286047009.8,Y
1693361955.0,286047004.0,P
1693361955.9,286047004.0,P
1693361975.7,286046998.1,N
1693361995.6,286046999.0,N
1693362015.4,286046998.8,N
1693362035.2,286046999.6,N
1693362055.1,286046996.9,N
1693362056.0,286046996.9,N
1693362075.8,286046996.7,N
1693362095.7,286046996.8,N
1693362115.5,286046997.7,N
1693362135.3,286046997.2,N
1693362155.2,286046997.5,N
1693362175.9,286046997.3,N
1693362195.7,286046997.3,N
1693362215.6,286047001.5,N
1693362235.4,286046998.8,N
1693362255.2,286046994.9,N
1693362275.1,286046997.7,N
1693362276.0,286046997.7,N
1693362295.8,286046997.8,N
1693362315.6,286046997.9,N
1693362335.5,286046997.4,N
1693362355.3,286046998.4,N
1693362375.1,286046997.0,N
1693362395.9,286046999.5,N
1693362415.7,286046999.3,N
1693362435.5,286046998.3,N
1693362455.4,286046997.0,N
1693362475.2,286046999.4,N
1693362495.0,286047000.8,N
1693362495.9,286047000.8,N
1693362515.8,286047001.0,N
1693362535.6,286046998.7,N
1693362555.4,286046999.0,N
1693362575.3,286046998.4,N
1693362595.1,286046999.0,N
1693362615.8,286047000.9,N
1693362635.7,286047000.7,N
1693362655.5,286047000.4,N
1693362675.3,286047002.7,N
1693362695.2,286047005.1,Y
1693362715.0,286047003.4,P
1693362715.9,286047003.4,N
1693362735.8,286047001.5,N
1693362755.6,286047001.7,N
1693362775.4,286047001.9,N
1693362795.3,286047001.5,N
1693362815.1,286047001.6,N
1693362816.0,286047001.6,N
1693362835.8,286047003.8,N
1693362855.7,286047004.4,Y
1693362875.5,286047002.6,P
1693362895.3,286047002.2,P
1693362915.2,286046999.7,N
1693362935.9,286047002.6,N
1693362955.7,286047000.3,N
1693362975.6,286047001.0,N
1693362995.4,286046999.8,N
1693363015.2,286046999.9,N
1693363035.1,286047002.8,N
1693363036.0,286047002.8,N
1693363055.8,286047001.8,N
1693363075.6,286047001.3,N
1693363095.5,286047004.4,Y
1693363115.3,286047002.2,P
1693363135.1,286047000.2,N
1693363155.9,286047000.0,N
1693363175.7,286047000.3,N
1693363195.5,286047000.1,N
1693363215.4,286047000.1,N
1693363235.2,286046999.9,N
1693363255.1,286047002.3,N
1693363256.0,286047002.3,N
1693363275.8,286046999.7,N
1693363295.6,286047000.1,N
1693363315.5,286047002.8,N
1693363335.3,286046999.7,N
1693363355.1,286047002.5,N
1693363375.9,286047004.4,Y
1693363395.7,286047004.0,P
1693363415.5,286047002.3,N
1693363435.4,286047004.2,P
1693363455.2,286047004.2,Y
1693363475.0,286047000.6,P
1693363475.9,286047000.6,N
1693363495.8,286047001.2,N
1693363515.6,286046998.4,N
1693363535.4,286046998.5,N
1693363555.3,286046999.0,N
1693363575.1,286046998.6,N
1693363595.8,286047000.7,N
1693363615.7,286046998.6,N
1693363635.5,286047001.2,N
1693363655.3,286047000.8,N
1693363675.2,286047002.1,N
1693363695.0,286047001.2,N
1693363695.9,286047001.2,N
1693363715.7,286046999.4,N
1693363735.6,286046996.7,N
1693363755.4,286046999.6,N
1693363775.3,286046998.9,N
1693363795.1,286047000.8,N
1693363796.0,286047000.8,N
1693363815.8,286047001.1,N
1693363835.7,286046998.4,N
1693363855.5,286046998.2,N
1693363875.3,286047000.9,N
1693363895.2,286046998.3,N
1693363915.9,286046998.6,N
1693363935.7,286046999.0,N
1693363955.6,286047000.8,N
1693363975.4,286047001.1,N
1693363995.2,286047000.0,N
1693364015.1,286047000.9,N
1693364016.0,286047000.9,N
1693364035.8,286047001.1,N
1693364055.6,286047000.8,N
1693364075.5,286046999.8,N
1693364095.3,286047000.0,N
1693364115.1,286047000.1,N
1693364135.9,286047004.2,Y
1693364155.7,286047002.7,P
1693364175.5,286047002.3,N
1693364195.4,286047002.4,N
1693364215.2,286047000.6,N
1693364235.0,286047002.5,N
1693364235.9,286047002.5,N
1693364255.8,286047001.9,N
1693364275.6,286047002.2,N
1693364295.4,286047002.4,N
1693364315.3,286047001.7,N
1693364335.1,286047003.4,Y
1693364355.9,286047004.4,P
1693364375.7,286047001.8,N
1693364395.5,286047001.4,N
